Terminal Aerodrome Forecast
Issued by NWS Blacksburg, VA

Home | Current Version | Previous Version | Text Only | Print | Product List | Glossary On
Versions: 1 2 3 4 5 6 7 8 9 10 11 12 13 14 15 16 17 18 19 20 21 22 23 24
000
FTUS41 KRNK 310523
TAFDAN
TAF
KDAN 310523Z 3106/0106 00000KT P6SM BKN250
      TEMPO 3109/3112 4SM BR
     FM311400 22006KT P6SM SCT050 BKN150
     FM312100 20005KT P6SM BKN060
     FM010200 00000KT P6SM BKN050 OVC080=

USA.gov is the U.S. government's official web portal to all federal, state and local government web resources and services.